Regional Weather Roundup
Issued by NWS Little Rock, AR

Home | Current Version | Previous Version | Text Only | Print | Product List | Glossary On
Versions: 1 2 3 4 5 6 7 8 9 10 11 12 13 14 15 16 17 18 19 20 21 22 23 24 25 26 27 28 29 30 31 32 33 34 35 36 37 38 39 40 41 42 43 44 45 46 47 48 49 50
000
ASUS44 KLZK 230205
RWRLZK

WEATHER ROUNDUP FOR ARKANSAS
NATIONAL WEATHER SERVICE LITTLE ROCK AR
900 PM CDT SUN APR 22 2018

NOTE: "FAIR" INDICATES FEW OR NO CLOUDS BELOW 12,000 FEET WITH NO
SIGNIFICANT WEATHER AND/OR OBSTRUCTIONS TO VISIBILITY.

ARZ001-003-010-029-230300-
NORTHWEST ARKANSAS

CITY           SKY/WX    TMP DP  RH WIND       PRES   REMARKS
FAYETTEVILLE   LGT RAIN  52  52 100 CALM      29.96R FOG
FORT SMITH     CLOUDY    54  52  93 W8        29.96S
HARRISON       RAIN      53  53 100 N9        29.94R FOG
BENTONVILLE    CLOUDY    55  52  89 N8        29.98R
ROGERS         LGT RAIN  54  52  93 N10       29.97R
SILOAM SPGS    CLOUDY    53  53 100 NW6       29.97R
HIGHFILL       CLOUDY    54  53  97 N6        29.96R
SPRINGDALE     CLOUDY    54  54 100 NW5       29.97R
$$

ARZ004-005-016-230300-
NORTH CENTRAL ARKANSAS

CITY           SKY/WX    TMP DP  RH WIND       PRES   REMARKS
BATESVILLE     CLOUDY    55  53  93 W3        29.90R
FLIPPIN        LGT RAIN  55  52  89 N7        29.93S
MTN HOME       CLOUDY    53  53 100 VRB3      29.91S
$$

ARZ040-041-230300-
WEST CENTRAL ARKANSAS

CITY           SKY/WX    TMP DP  RH WIND       PRES   REMARKS
MENA           CLOUDY    54  52  94 W5        29.97R
MOUNT IDA      CLOUDY    53  50  89 VRB3      29.92S
$$

ARZ009-017-025-026-028-230300-
NORTHEAST ARKANSAS

CITY           SKY/WX    TMP DP  RH WIND       PRES   REMARKS
CORNING        CLOUDY    59  59 100 E14       29.90R
JONESBORO      CLOUDY    59  59 100 NW5       29.87S
NEWPORT        FAIR      55  53  93 NW6       29.89S
WALNUT RIDGE   LGT RAIN  57  56  96 NW6       29.89R FOG
BLYTHEVILLE    CLOUDY    60  57  89 E8        29.87S
$$

ARZ022-023-033-042-044-230300-
CENTRAL ARKANSAS

CITY           SKY/WX    TMP DP  RH WIND       PRES   REMARKS
LITTLE ROCK    CLOUDY    56  52  86 W12       29.92R
N LITTLE ROCK    N/A     53  51  93 W5        29.89R
JACKSONVILLE   CLOUDY    57  54  89 W10       29.90R
CONWAY         CLOUDY    55  54  94 W7        29.92R
SEARCY         CLOUDY    58  58 100 N5        29.90R
HOT SPRINGS    CLOUDY    55  51  86 NW6       29.94R
RUSSELLVILLE   CLOUDY    54  53  97 W6        29.93R
CLINTON        FAIR      55  52  88 CALM      29.91R
$$

ARZ036-230300-
EAST ARKANSAS

CITY           SKY/WX    TMP DP  RH WIND       PRES   REMARKS
WEST MEMPHIS   LGT RAIN  61  61 100 CALM      29.84S FOG
$$

ARZ050-053-066-070-073-230300-
SOUTHWEST ARKANSAS

CITY           SKY/WX    TMP DP  RH WIND       PRES   REMARKS
ARKADELPHIA    CLOUDY    56  51  84 NW6       29.96R
CAMDEN         CLOUDY    59  48  67 VRB3      29.94R
TEXARKANA      CLOUDY    55  49  80 NW9       29.98R
EL DORADO      CLOUDY    56  51  84 W6        29.95R
DE QUEEN       CLOUDY    54  50  86 W8        29.97R
$$

ARZ056-057-069-230300-
SOUTHEAST ARKANSAS

CITY           SKY/WX    TMP DP  RH WIND       PRES   REMARKS
PINE BLUFF     CLOUDY    60  52  74 NW15G21   29.91R
STUTTGART      CLOUDY    60  56  86 NW15G21   29.89R
MONTICELLO     MOCLDY    60  52  74 W14G22    29.90R

$$





USA.gov is the U.S. government's official web portal to all federal, state and local government web resources and services.